Location: Mahannah Oil Field
(37.4664°N, 96.6003°W)
Time: 01:11:30
(UTC+00:00)

A-11 Canister half - Pass Details

Date: 22 January 2021
Orbit: 1525 x 1684 km, 47.3° (Epoch: 03 March)

Event Time Altitude Azimuth Distance (km) Brightness Sun altitude
Rises 03:38:06 0° 301° (WNW) 4,784 12.2 -47.2°
Reaches altitude 10° 03:41:09 10° 301° (WNW) 3,818 11.5 -47.8°
Enters shadow 03:46:44 41° 299° (WNW) 2,219 9.9 -48.8°
